Location: CAO
(44.5093°N, 80.3921°W)
Time: 12:33:59
(UTC-05:00)

Envisat - Visible Passes

Search period start: 05 March 2021 00:00
Search period end: 15 March 2021 01:00
Orbit: 764 x 766 km, 98.1° (Epoch: 05 March)

Date Brightness Start Highest point End Pass type
(mag) Time Alt. Az. Time Alt. Az. Time Alt. Az.
05 Mar 4.6 05:27:32 10° NNE 05:32:15 37° E 05:36:55 10° SSE visible
06 Mar 5.9 04:51:46 10° NE 04:55:07 17° E 04:58:25 10° SE visible
07 Mar 3.6 05:52:41 10° NNE 05:57:44 63° E 06:02:46 10° S visible
07 Mar 6.8 18:52:47 10° W 18:53:37 10° W 18:54:26 10° WNW visible
08 Mar 5.1 05:16:19 10° NE 05:20:45 29° E 05:25:08 10° SSE visible
09 Mar 6.1 04:41:01 10° ENE 04:43:32 14° E 04:46:03 10° ESE visible
10 Mar 4.0 05:41:19 10° NNE 05:46:17 50° E 05:51:12 10° S visible
11 Mar 5.5 05:05:10 10° NE 05:09:13 23° E 05:13:15 10° SE visible
12 Mar 6.3 04:31:00 10° ENE 04:31:57 10° E 04:32:55 10° E visible
12 Mar 3.1 06:06:36 10° NNE 06:11:43 86° ESE 06:16:48 10° SSW visible
13 Mar 4.5 05:30:01 10° NNE 05:34:48 40° E 05:39:33 10° SSE visible
14 Mar 5.8 05:54:08 10° NE 05:57:41 19° E 06:01:12 10° SE visible
